Flag for Germany Weather past 2 weeks in Schwäbisch Gmünd, Baden-Württemberg, Germany

Now
50 °F

Drizzle. Low clouds.


Feels Like: 46 °F
Forecast: 40 / 52 °F
Wind: 8 mph from North

Location: Stoetten

Current Time: Apr 28, 2015 at 12:53:11 AM

Latest Report: Apr 27, 2015 at 11:00 PM


Visibility: 13 mi

Pressure: 29.59 "Hg

Humidity: 97%

Dew point: 49 °F

Location of Schwäbisch GmündLocation

Historic Weather in Schwäbisch Gmünd — Graph

°F

Schwäbisch Gmünd temperature yesterday

Maximum temperature yesterday: 62 °F (at 4:00 PM)
Minimum temperature yesterday: 49 °F (at 5:00 AM)
Average temperature yesterday: 55 °F

Past Weeks' High & Low Weather Summary

 TemperatureHumidityPressure
High70 °F (Apr 15, 5:00 PM)98% (Apr 25, 11:00 PM)30.46 "Hg (Apr 25, 11:00 PM)
Low32 °F (Apr 19, 5:00 AM)24% (Apr 15, 5:00 PM)29.47 "Hg (Apr 27, 6:00 PM)
Average51 °F60%30.09 "Hg
* Reported Apr 12 11:00 PM — Apr 27 11:00 PM, Schwäbisch Gmünd, Weather by CustomWeather, © 2015

Note: Actual official high and low records may vary slightly from our data, if they occured in-between our weather recording intervals... More about our weather records

Advertising

Schwäbisch Gmünd weather history for previous 24 hours

 ConditionsComfort  
Time TempWeatherWind HumidityBarometerVisibility
11:00 PM
Mon, Apr 27
50 °FDrizzle. Low clouds.8 mph97%29.59 "Hg13 mi
10:00 PM54 °FOvercast.5 mph90%29.56 "Hg7 mi
9:00 PM56 °FOvercast.6 mph79%29.53 "Hg22 mi
8:00 PM57 °FOvercast.6 mph75%29.50 "Hg47 mi
7:00 PM59 °FOvercast.6 mph73%29.50 "Hg47 mi
6:00 PM60 °FPartly sunny.5 mph69%29.47 "Hg47 mi
5:00 PM60 °FPartly sunny.6 mph70%29.50 "Hg47 mi
4:00 PM62 °FOvercast.5 mph66%29.50 "Hg47 mi
3:00 PM60 °FOvercast.5 mph68%29.54 "Hg47 mi
2:00 PM60 °FOvercast.5 mph69%29.55 "Hg47 mi
1:00 PM60 °FOvercast.5 mph72%29.57 "Hg47 mi
12:00 PM57 °FOvercast.7 mph73%29.58 "Hg47 mi
11:00 AM57 °FOvercast.7 mph78%29.58 "Hg43 mi
10:00 AM57 °FOvercast.7 mph80%29.58 "Hg37 mi
9:00 AM55 °FPartly sunny.5 mph83%29.58 "Hg34 mi
8:00 AM53 °FPartly sunny.5 mph86%29.60 "Hg34 mi
7:00 AM50 °FPartly sunny.5 mph90%29.61 "Hg31 mi
6:00 AM50 °FPassing clouds.5 mph88%29.60 "Hg31 mi
5:00 AM49 °FClear.3 mph93%29.63 "Hg16 mi
4:00 AM52 °FPassing clouds.3 mph88%29.61 "Hg19 mi
3:00 AM53 °FOvercast.3 mph85%29.61 "Hg25 mi
2:00 AM52 °FOvercast.5 mph91%29.64 "Hg22 mi
1:00 AM52 °FRain. Fog.3 mph94%29.68 "Hg2 mi
12:00 AM57 °FOvercast.3 mph67%29.65 "Hg43 mi
Weather by CustomWeather, © 2015

See weather overviewHow to use our weather pages